CAPE
2198 2115 2089 1867 1873 1892 1831 1732 1798 1928 1751 1711 1809 2059 1960 1933 1975 2102 2303 2353 2150 1995 1757 2058 2299 2530 2466 2326 2635 2985 3032 3044 3016 3031 3192 3434 3435 3394 3450 3392 3362 3464 3503 3565 3725 3788 3745 3529 3301 2969 2461 2284 2218 2099 2161 2191 2122 2104 1838 1587 1555 1965 1934 1717 1419 1310 1392 1968 2514 2699 2394 2789 2702 2568 2839 2909 2725 2825 2501 2723 3532 3612 3291 3136 3119
2614 2490 2434 2160 1932 1871 1816 1788 1813 1890 1885 1727 1647 1620 1826 1875 1808 1882 1978 1990 2027 1968 1415 1588 2155 2238 2374 2331 2317 2533 2770 2888 2939 2923 2928 3123 3317 3309 3315 3380 3336 3344 3342 3219 3216 3287 3402 3330 3028 2829 2713 2604 2363 2321 2116 2201 2245 2180 2099 2051 1964 1881 1791 1556 1437 1421 1506 1600 1665 1806 2432 2751 2581 3153 2990 3161 3312 3256 3114 2946 3594 3595 3492 3255 3155
2613 2628 2596 2477 2206 2011 1842 1800 1806 1826 1853 1810 1728 1617 1498 1563 1631 1614 1654 1662 1558 1525 1376 1259 1552 2029 2165 2174 2149 2281 2375 2452 2574 2759 2745 2798 2911 2914 2885 2939 3068 3169 3192 3177 3065 2950 2814 2666 2621 2654 2956 3018 2770 2574 2547 2452 2214 2110 2121 2034 1915 1822 1759 1867 1702 1677 1624 1477 1650 2176 2356 2517 2594 2824 3017 3122 3225 3274 3301 3200 3038 3304 3240 3188 3108
2366 2618 2659 2632 2513 2379 2184 1880 1764 1808 1771 1741 1721 1674 1610 1426 1248 1261 1243 1310 1444 1468 1414 1180 1283 1486 1712 1823 1860 1809 1896 2045 2035 2078 2371 2473 2559 2558 2556 2530 2542 2753 2882 2953 2977 2941 2790 2727 2680 2605 2791 2896 2808 2795 2778 2789 2711 2296 1906 1847 1819 1808 1763 1592 1817 1708 1534 1458 1521 1838 2094 2535 2836 2993 3095 3255 3356 3464 3375 3166 2895 2905 3043 3091 2993
2142 2423 2506 2657 2711 2503 2272 2017 1809 1758 1738 1726 1667 1627 1611 1491 1214 1011 1040 1050 1197 1352 1379 1206 1258 1353 1427 1468 1498 1532 1518 1505 1653 1684 1738 2025 2158 2219 2221 2210 2155 2106 2310 2646 3149 2790 2761 2720 2586 2460 2454 2607 2782 2828 2793 2744 2738 2627 2344 2104 2015 1986 1765 1614 1581 1566 1525 1559 1578 1869 2562 3100 3298 3274 3370 3488 3378 3037 2825 3040 3144 3095 3030 3123 3325
2081 2137 2222 2256 2313 2153 1906 1932 1976 1800 1743 1685 1657 1604 1538 1476 1351 1050 754 947 953 1085 1176 1114 1176 1313 1341 1362 1361 1372 1372 1342 1424 1521 1532 1653 1879 1970 2007 2000 1941 1884 1880 1951 2113 2534 2675 2591 2452 2377 2282 2224 2300 2416 2505 2546 2572 2560 2475 2234 2005 1877 1837 1784 1678 1691 1797 1694 1570 1706 1996 2427 2486 2933 3202 3133 2760 2642 2852 3124 3211 3182 3082 3117 3490
1791 1849 1819 2070 2205 1756 1621 1811 1986 1947 1857 1761 1655 1570 1484 1364 1254 1167 990 808 728 811 890 905 877 1079 1261 1272 1252 1264 1291 1276 1310 1404 1435 1454 1672 1853 1900 1879 1810 1718 1725 1846 1894 1863 1838 2009 2108 2138 2125 2074 2031 1994 1994 2040 2133 2228 2256 2187 2019 1787 1708 1788 1712 1523 1548 1588 1619 1859 1996 2245 2677 2579 2350 2444 2834 3049 3189 3397 3286 2975 2641 2537 2738
1136 1261 1508 1770 1790 1152 1135 1450 1670 1876 1932 1955 1824 1577 1403 1558 1226 1009 899 804 770 228 288 662 733 639 640 917 1010 1041 1109 1137 1152 1200 1254 1276 1314 1519 1748 1786 1758 1676 1583 1518 1590 1667 1666 1637 1624 1688 1756 1784 1784 1796 1798 1792 1753 1826 1909 1890 1783 1694 1674 1719 1729 1613 1588 1592 1593 1639 1716 1989 2216 2509 2778 2830 2910 2990 3058 2990 2565 2123 1803 1983 2656
1297 1162 913 1428 1572 1318 1227 1076 1343 1479 1494 1818 1976 1830 1477 1782 1618 1399 716 555 487 732 187 221 380 353 261 319 516 695 905 969 979 990 1046 1064 1023 996 1133 1464 1584 1616 1603 1541 1413 1318 1379 1485 1539 1525 1490 2289 1904 1790 1619 1777 1505 1507 1565 1620 1663 1670 1712 1731 1730 1621 1417 1426 1645 1924 2278 2454 2596 2683 2716 2856 3008 2989 2850 2232 1889 1694 1906 2154 2369
1361 1580 1491 1336 1376 1272 1360 1507 1515 1302 1228 1200 1560 1820 1745 1490 1457 1450 1340 1099 629 613 500 144 117 351 372 318 368 492 606 857 999 871 920 955 887 812 742 764 975 1181 1320 1393 1406 1309 1152 1051 1017 1768 2103 2203 1932 1676 1548 1719 2405 1838 1384 1324 1407 1511 1546 1569 1588 1573 1466 1358 1379 1416 1482 1563 1633 1800 2023 2128 2075 1927 1797 1693 1626 1655 1692 1848 2094
1112 1207 1373 1592 1934 1922 1356 1141 1242 1312 1348 1316 1379 1372 1585 1589 1369 1365 1341 1381 1246 868 446 376 55 15 274 483 463 445 498 559 683 865 837 906 917 817 739 701 704 772 881 1021 1097 1101 1070 1037 996 1322 2329 2786 2356 1759 1296 1156 1106 1605 2375 2488 2160 1316 1295 1336 1393 1431 1443 1384 1356 1390 1426 1420 1413 1417 1491 1556 1618 1632 1697 1748 1690 1538 1558 1746 1578
1057 1087 1206 1381 1764 1907 1761 1897 2336 2522 2278 1988 1825 1768 1502 1354 1298 1355 1440 1498 1523 1435 947 404 336 625 561 376 495 707 638 568 118 0 597 775 869 1010 878 829 806 810 832 854 888 918 915 877 872 902 917 884 842 1028 1308 1438 1355 1207 1069 1112 1517 2362 2064 1472 1221 1260 1372 1450 1486 1549 1543 1538 1521 1536 1598 1623 1674 1696 1727 1705 1640 1588 1700 1801 1775
944 982 942 1074 1130 1078 1348 1513 1625 1669 1681 1848 1457 1470 1395 1492 1599 1643 1624 1640 1625 1565 1457 1152 476 494 610 570 421 356 716 787 744 158 0 374 696 790 872 894 860 812 795 789 782 790 789 780 759 717 682 1008 1364 846 665 665 612 593 698 752 780 851 1171 1674 1731 1505 1284 1376 1488 1510 1559 1602 1632 1657 1667 1695 1661 1666 1670 1629 1612 1582 1516 1480 1507
603 712 810 865 954 970 953 1136 1250 1120 1194 1153 1244 1606 1536 1404 1366 1389 1515 1620 1571 1515 1504 1416 1234 862 533 514 506 501 430 522 721 803 787 728 672 646 661 754 810 819 788 736 685 648 608 377 380 401 384 318 413 339 169 77 90 241 405 472 434 667 736 786 1065 1517 1714 1620 1528 1474 1432 1499 1566 1460 1531 1652 1642 1603 1558 1508 1474 1454 1437 1349 1239
554 597 615 618 612 642 935 931 1113 1215 1275 1221 1169 1150 1142 1220 1245 1328 1391 1476 1532 1600 1582 1467 1307 1256 1036 803 818 941 1036 1112 833 618 697 778 740 674 607 416 647 731 764 756 734 654 265 152 139 157 148 110 84 187 77 22 5 2 15 70 181 246 265 362 573 788 1086 1524 1828 1817 1678 1512 1421 1408 1408 1456 1555 1606 1574 1583 1642 1750 1790 1784 1753
478 512 527 520 453 460 536 642 783 863 916 969 1067 1142 1207 1176 1117 1208 1286 1370 1415 1408 1430 1426 1457 1430 1313 1148 1019 906 1008 1148 1158 1056 823 626 719 737 698 653 595 566 736 780 784 766 733 664 30 29 26 16 150 170 418 361 343 332 31 0 40 174 293 388 278 462 658 777 989 1322 1549 1614 1561 1521 1558 1657 1756 1828 1903 2100 2098 2138 2098 1932 1743
351 378 393 391 373 379 404 447 494 582 700 761 746 716 808 854 909 947 1018 1200 1432 1558 1509 1371 1310 1337 1367 1351 1236 1108 1121 1172 1201 1246 1246 958 533 594 714 734 729 706 733 774 820 842 834 800 729 532 495 484 146 160 501 523 549 561 560 535 514 476 456 419 490 558 552 557 612 675 741 822 906 977 1086 1232 1298 1246 1073 1070 1105 1073 1110 1067 966
125 150 183 191 194 210 257 302 365 406 502 579 624 660 613 595 685 783 810 906 1305 1609 1631 1665 1546 1416 1358 1316 1278 1312 1323 1387 1352 1316 1280 1290 1272 912 656 598 563 595 669 622 651 697 723 767 1164 693 596 545 547 539 542 553 584 616 626 645 646 629 610 586 784 920 946 934 874 842 796 783 768 799 820 837 851 816 1098 1338 1365 1342 1326 1210 967
0 0 0 0 0 0 49 101 180 239 306 370 412 443 453 586 601 568 618 660 758 1283 1778 1841 1864 1832 1722 1573 1510 1682 1512 1571 1642 1580 1433 1279 1272 1333 1375 1265 1107 1062 1066 1109 1115 1119 1102 1075 1385 1082 703 622 244 618 672 655 638 632 632 646 678 703 738 726 802 1076 1284 1382 1397 1357 1311 1266 1225 1171 1129 1124 1145 1363 1602 1766 1776 1647 1478 1309 1143
0 0 0 0 0 0 0 0 0 0 5 8 9 219 455 889 860 722 505 552 814 1294 1594 1757 1816 1820 1795 1767 1762 1803 1789 1752 1666 1602 1585 1590 1600 1549 1509 1487 1499 1429 1282 1196 1232 1343 1418 1542 1613 1558 1403 1140 811 697 735 801 782 738 698 705 723 747 780 773 783 1086 1326 1615 1738 1789 1792 1780 1788 1780 1763 1770 1814 1937 2072 2092 1982 1749 1519 1356 1178
0 0 0 0 0 0 0 0 0 0 0 0 0 3 25 222 501 710 636 634 1148 1249 1285 1367 1487 1476 1392 1478 1514 1617 1929 2206 1944 1871 1858 1847 1835 1828 1717 1608 1490 1433 1475 1488 1409 1288 1226 1274 1373 1533 1560 1427 1165 943 914 971 1008 1020 968 922 904 939 942 972 993 1869 1562 1449 1534 1708 1882 1982 2038 2088 2117 2185 2231 2241 2192 2003 1763 1521 1279 1152 1108
0 0 0 0 0 0 0 0 0 0 0 0 0 0 0 0 94 462 705 963 1160 820 832 897 1011 913 1147 1330 1448 1480 1499 1546 1681 1827 1934 1930 1840 1746 1770 1771 1716 1652 1542 1354 1334 1362 1354 1305 1265 1304 1418 1397 1282 1233 1254 1294 1405 1436 1474 1471 1476 1470 1453 1427 1410 1356 1270 1372 1365 1279 1297 1355 1410 1657 1726 1786 1814 1824 1752 1585 1402 1285 1158 1102 1073
0 0 0 0 0 0 0 0 0 0 0 0 0 0 0 0 128 541 869 1012 732 492 429 439 555 690 788 1028 1366 1466 1477 1483 1524 1578 1653 1783 1833 1850 1816 1789 1846 1949 1951 1884 1763 1580 1432 1459 1517 1545 1583 1617 1620 1536 1514 1643 1640 1702 1661 1671 1708 1692 1681 1676 1650 1607 1719 1846 1870 1791 1666 1620 1633 1682 1636 1601 1620 1589 1658 1633 1617 1606 1571 1508 1431
0 0 0 0 0 0 0 0 0 0 0 0 0 0 0 0 67 664 941 763 522 218 212 259 337 485 609 785 1001 1233 1262 1225 1288 1330 1421 1587 1623 1586 1570 1598 1676 1916 2220 2360 2379 2280 2032 1754 1465 1415 1587 1666 1734 1792 1808 1717 1571 1513 1578 1617 1620 1576 1595 1643 1661 1682 1919 2100 2114 2057 1977 1911 1848 1879 1857 1801 1768 1742 1887 1968 1994 2020 2020 2083 2129
0 0 0 0 0 0 0 0 0 0 0 0 0 0 0 0 0 0 31 127 26 2 25 117 143 286 437 553 681 851 985 994 1021 1010 1063 1205 1328 1350 1408 1473 1718 1889 2166 2362 2377 2298 2157 2212 2172 1929 1662 1553 1698 1740 1773 1740 1660 1587 1577 1612 1594 1641 1668 1716 1771 2074 2170 2137 1991 1949 1943 1980 2022 2067 2052 1990 1991 1980 1954 2200 2275 2377 2497 2500 2458
0 0 0 0 0 0 0 0 0 0 0 0 0 0 0 0 0 0 0 0 0 0 0 7 0 0 122 260 440 566 651 727 720 740 778 903 1072 1216 1355 1332 1376 1596 1776 1844 1842 1856 1906 1978 2012 1986 1931 1845 1699 1648 1600 1606 1619 1634 1866 2009 1990 1971 1990 2022 2062 2080 1969 1777 1618 1531 1538 1658 1787 1883 2014 2118 2151 2079 2000 2043 2114 2194 2230 2238 2252
0 0 0 0 0 0 0 0 0 0 0 0 0 0 0 0 0 0 0 0 0 0 0 0 0 0 0 0 28 216 349 479 540 540 551 620 717 939 1096 1167 1231 1328 1375 1475 1584 1678 1762 1791 1814 1845 1833 1791 1715 1649 1606 1586 1623 1670 1704 1671 1657 1705 1739 1671 1630 1634 1617 1541 1451 1387 1395 1413 1511 1561 1638 1755 1916 2119 2152 2029 1964 1914 1799 1750 1829
0 0 0 0 0 0 0 2 8 1 0 0 0 0 0 0 0 0 0 0 0 0 0 0 0 0 0 0 0 0 0 160 194 239 270 341 400 442 544 744 1020 1178 1243 1309 1341 1372 1485 1571 1660 1721 1760 1742 1702 1640 1579 1517 1470 1480 1522 1561 1588 1576 1567 1528 1456 1424 1390 1371 1305 1281 1288 1356 1406 1414 1412 1418 1652 2003 2148 2101 1984 1942 1913 1820 1670
0 0 0 0 0 0 0 0 0 0 0 0 0 0 0 0 0 0 0 0 0 0 0 0 0 0 0 0 0 0 0 0 0 0 92 140 187 229 271 341 406 493 762 1022 1204 1272 1312 1367 1394 1518 1610 1690 1664 1657 1664 1662 1661 1609 1528 1465 1489 1533 1575 1578 1541 1506 1492 1432 1432 1406 1400 1394 1397 1414 1432 1445 1434 1635 1984 2085 1994 1923 1895 1862 1754
1 0 0 0 0 0 0 0 0 0 0 0 1 0 16 0 0 0 0 0 0 0 0 0 0 0 0 0 0 0 0 0 0 0 0 0 11 70 84 164 206 268 325 398 508 630 818 1099 1245 1294 1338 1404 1513 1599 1639 1648 1677 1704 1754 1749 1697 1626 1556 1481 1548 1539 1471 1370 1298 1272 1289 1318 1334 1276 1215 1160 1272 1470 1756 1928 1927 1872 1834 1856 1824
10 2 1 0 0 0 0 0 0 0 0 2 2 0 0 0 0 0 0 0 0 0 0 0 0 0 0 0 0 0 0 0 0 0 0 0 0 0 0 8 91 124 173 238 313 355 426 420 414 545 852 1080 1235 1332 1392 1442 1463 1520 1607 1679 1747 1722 1644 1608 1603 1592 1571 1496 1327 1270 1296 1404 1529 1608 1643 1577 1343 1426 1651 1700 1741 1745 1776 1819 1802
0 0 0 0 0 0 0 2 3 5 1 0 0 0 0 0 0 0 0 0 0 0 0 0 0 0 0 0 0 0 0 0 0 0 0 0 0 0 0 0 0 26 92 112 133 166 216 298 420 476 474 516 765 1064 1194 1271 1272 1256 1350 1412 1531 1565 1592 1592 1537 1522 1614 1515 1399 1324 1377 1420 1568 1703 1816 1921 1960 2004 2030 1996 1920 1841 1809 1770 1717
0 0 8 10 4 2 2 4 12 21 17 11 4 0 0 0 0 0 0 0 0 0 0 0 0 0 0 0 0 0 0 0 0 0 0 0 0 0 0 0 0 0 0 0 18 0 12 44 187 241 378 412 470 577 926 1103 1122 1065 1195 1423 1534 1541 1516 1532 1480 1467 1509 1529 1416 1374 1472 1589 1719 1812 1861 1897 1920 1932 1968 1944 1860 1812 1726 1652 1573
0 2 20 31 26 21 19 19 17 16 18 11 11 0 0 0 0 0 0 0 0 0 0 0 0 0 0 0 0 0 0 0 0 0 0 0 0 0 0 0 0 0 0 0 0 0 10 58 70 97 272 373 484 583 654 714 806 840 978 1186 1335 1342 1318 1318 1322 1373 1466 1473 1503 1546 1488 1602 1739 1833 1889 1933 1945 1923 1878 1902 1842 1696 1610 1492 1433
0 0 13 26 32 15 14 12 11 10 14 15 0 0 0 0 0 0 0 0 0 0 0 0 0 0 0 0 0 0 0 0 2 0 0 0 0 0 0 0 0 0 0 1 8 19 15 10 8 13 16 23 68 322 430 574 674 768 883 911 950 981 1042 1117 1212 1255 1363 1520 1537 1504 1598 1733 1805 1842 1868 1839 1794 1782 1735 1815 1907 1880 1825 1797 1617
0 0 0 1 1 3 4 1 1 0 0 0 0 0 0 0 0 0 0 0 0 0 0 0 0 0 0 0 0 0 0 0 0 0 0 0 0 0 0 0 0 2 10 29 33 8 2 3 5 5 7 17 105 291 354 350 482 620 753 859 948 1022 1059 1151 1175 1262 1373 1456 1547 1617 1639 1664 1714 1765 1744 1741 1686 1637 1629 1634 1644 1655 1720 1685 1570
0 0 0 0 0 0 0 0 0 2 6 1 0 0 0 0 0 0 0 0 0 0 0 0 0 0 0 6 1 0 0 0 0 0 0 0 0 0 0 0 4 6 3 2 2 2 2 2 3 3 3 4 4 27 7 9 70 253 521 664 818 954 1094 1210 1339 1421 1400 1385 1442 1468 1557 1652 1651 1653 1635 1657 1665 1697 1720 1736 1818 1820 1786 1608 1384
3 1 1 1 1 2 3 2 2 1 1 0 4 4 2 1 0 0 0 0 0 0 0 0 0 0 0 0 5 0 0 0 0 0 0 0 0 0 0 0 0 0 1 0 0 0 0 1 3 6 5 5 5 7 11 12 13 11 58 552 679 837 964 1082 1224 1257 1334 1390 1465 1273 1343 1477 1515 1497 1556 1697 1779 1722 1662 1683 1692 1722 1731 1556 1248
0 1 1 2 4 5 4 3 1 0 0 1 1 1 2 1 0 0 0 0 0 0 0 0 0 0 0 0 0 0 0 0 0 0 0 0 0 0 0 0 0 0 0 0 0 0 0 0 4 10 15 15 14 14 15 14 13 11 193 442 564 703 812 921 948 1037 1234 1318 1418 1356 1292 1384 1453 1485 1492 1434 1402 1421 1517 1561 1555 1549 1443 1329 1323
4 0 0 0 0 2 7 8 6 3 1 0 0 0 0 0 0 0 0 0 0 0 0 0 0 0 0 0 0 0 0 0 0 0 0 0 0 0 0 0 0 0 0 0 0 0 0 0 0 5 8 12 15 16 19 16 9 9 10 13 409 581 714 767 808 887 976 902 1030 1018 986 978 1001 1151 1251 1216 1290 1333 1453 1536 1491 1452 1413 1424 1497
3 3 5 4 4 0 0 1 2 4 4 4 2 0 0 0 1 4 0 0 0 0 0 0 0 0 0 0 0 0 0 0 0 0 0 0 0 0 0 0 0 0 0 0 0 0 0 0 0 0 1 3 9 14 12 9 5 5 3 4 5 5 6 208 400 649 715 774 849 790 748 800 905 990 1071 1164 1135 1157 1304 1420 1451 1459 1440 1450 1451
4 3 5 4 5 8 6 10 10 10 2 5 0 0 0 0 0 1 2 2 2 2 1 0 0 0 0 0 0 4 3 2 0 0 0 0 0 0 0 1 0 0 0 0 0 0 0 0 0 0 0 1 4 6 6 4 4 4 2 2 2 2 3 4 6 5 4 4 3 157 486 635 679 768 867 1013 1092 1171 1271 1399 1444 1394 1435 1442 1302
4 8 3 5 4 5 7 0 0 0 3 8 6 10 12 12 7 8 6 6 4 5 3 2 0 0 0 0 8 9 4 0 0 0 0 0 0 0 0 0 0 0 0 0 0 0 0 0 0 0 0 0 1 4 6 8 9 7 6 6 6 4 4 4 2 4 4 5 4 2 2 11 264 548 786 956 1172 1230 1241 1312 1357 1407 1365 1267 1283
3 3 4 6 6 7 8 2 0 1 1 8 15 22 25 19 13 9 7 5 5 6 6 6 5 2 2 7 9 5 1 0 0 0 0 0 0 0 0 0 0 0 0 0 0 0 0 0 0 0 0 0 0 2 4 7 9 9 9 6 4 4 3 2 3 5 4 2 4 3 3 1 1 1 342 518 749 940 1140 1239 1257 1251 1206 1164 1194
2 2 1 1 2 4 5 7 8 9 26 24 19 19 30 24 19 19 23 21 22 26 24 21 16 13 12 10 7 2 0 0 0 0 0 0 0 0 0 0 2 1 0 0 0 0 0 0 0 0 0 1 2 1 0 0 1 4 4 0 0 0 0 1 2 2 1 0 0 0 0 1 1 0 0 0 269 408 520 633 781 882 996 1023 1099
0 0 0 1 6 8 13 18 18 21 20 20 23 28 32 30 29 35 41 40 37 30 23 24 26 23 18 7 3 1 0 0 0 0 0 0 1 2 3 3 1 0 0 0 0 0 1 2 1 0 1 1 0 0 0 0 2 2 1 0 0 0 0 0 0 0 0 0 0 1 2 1 1 0 2 1 1 2 2 2 4 347 426 527 700
0 0 5 8 10 20 22 21 23 27 28 30 30 25 25 28 31 38 41 42 43 57 54 37 23 13 7 4 5 2 3 3 2 2 1 0 1 4 4 1 0 0 0 0 0 0 0 0 0 0 0 0 1 2 0 0 0 0 0 0 0 0 0 0 0 0 0 0 0 0 0 1 1 1 2 1 1 1 2 2 7 2 4 7 291
7 7 13 17 22 20 25 23 23 20 22 23 24 26 24 22 23 31 36 43 48 40 27 15 7 8 5 1 1 2 2 2 1 1 1 0 0 0 0 0 0 0 0 0 0 0 1 0 1 0 0 0 0 0 0 0 0 0 0 0 0 0 0 0 0 0 0 0 0 0 0 0 0 1 0 1 1 1 3 3 5 6 5 4 3
12 14 20 26 30 25 17 13 14 7 11 14 12 16 20 21 34 41 36 28 23 18 6 4 7 8 7 5 4 3 4 3 1 0 0 0 1 1 1 2 2 0 0 0 0 0 0 0 0 0 0 0 0 0 0 0 0 0 0 1 2 2 2 2 1 0 0 0 0 0 0 0 0 1 1 1 1 1 1 1 2 3 4 5 5
16 16 11 10 19 9 16 6 5 11 11 6 2 6 24 28 21 25 28 28 22 14 5 11 12 10 9 9 8 7 3 2 0 0 1 2 2 2 1 1 0 0 0 0 0 0 0 0 0 0 0 0 0 0 0 0 0 0 0 0 0 0 0 1 1 0 0 0 0 0 0 0 0 1 0 0 0 1 0 0 1 1 0 1 1
12 3 1 4 10 1 2 1 3 8 8 6 9 16 23 20 17 15 16 17 14 8 6 6 11 11 3 3 2 1 1 0 0 0 0 0 0 0 1 1 1 2 2 1 1 1 0 0 0 0 0 0 0 0 0 0 0 0 0 0 0 1 2 2 1 0 0 0 0 0 0 0 0 0 0 1 2 1 1 1 1 1 1 0 0
Wind_Speed
10 8 8 7 8 8 8 9 9 11 12 12 12 11 10 10 9 8 9 6 6 6 6 5 3 3 3 3 3 3 3 4 4 5 5 3 3 4 4 3 2 1 1 1 2 3 4 5 6 6 5 5 6 7 8 8 9 9 9 8 7 8 10 10 10 9 10 10 9 7 7 8 7 8 7 6 4 6 7 8 10 13 15 17 18
11 10 11 10 9 9 9 11 11 12 11 13 13 12 11 11 10 11 9 7 7 5 5 6 5 3 3 3 4 4 4 5 5 6 5 5 5 5 5 5 4 3 2 1 2 2 3 4 6 6 5 4 5 7 6 7 9 9 8 8 8 7 9 11 9 10 9 12 12 10 8 9 8 9 9 7 7 8 8 9 10 12 13 15 18
12 12 12 11 11 11 11 12 12 12 11 13 12 12 12 12 12 11 10 9 8 6 5 6 6 5 5 5 5 5 5 5 6 6 6 5 5 6 6 6 5 4 3 2 2 3 4 4 4 5 6 6 6 5 6 5 5 6 6 6 6 6 8 9 12 9 8 8 10 10 10 10 10 8 8 8 8 8 7 8 10 12 14 16 17
25 23 17 15 16 18 16 14 12 11 11 12 11 12 12 12 12 11 10 10 9 7 7 6 6 6 6 5 5 6 6 5 5 6 6 6 5 6 7 7 7 6 4 2 2 3 3 4 4 4 5 5 5 5 5 5 5 5 5 5 6 6 6 8 9 9 9 8 9 9 9 9 9 9 8 7 7 6 8 8 10 12 14 16 17
33 32 27 21 20 23 22 20 14 11 11 12 10 12 12 11 12 11 11 11 10 10 9 9 8 7 6 5 4 4 5 5 5 5 6 6 5 5 7 7 7 7 7 5 3 3 3 3 4 5 5 5 5 5 4 4 3 4 4 4 4 4 6 7 6 7 7 5 6 7 8 8 8 7 6 6 6 7 8 8 8 9 11 14 16
31 29 23 26 31 32 28 21 16 14 13 12 11 11 11 11 11 11 12 11 12 12 12 11 10 8 7 6 5 4 4 4 4 4 5 5 5 5 6 7 7 7 8 8 7 6 5 4 5 5 5 4 4 4 4 3 3 3 3 2 2 3 3 3 4 5 5 3 4 3 6 5 5 5 6 8 7 7 7 7 9 11 12 10 12
29 25 26 27 26 25 17 14 16 16 17 17 16 14 13 14 13 12 12 12 13 13 13 13 12 11 8 8 6 5 4 4 4 4 4 5 5 5 5 6 7 8 9 9 9 8 6 6 6 5 5 5 5 4 4 3 2 2 2 2 3 1 1 1 1 1 2 1 1 3 2 3 6 4 6 10 11 13 11 8 8 10 12 12 10
26 25 28 26 24 17 15 17 18 20 21 19 17 17 18 19 19 18 17 14 13 13 13 13 12 12 10 10 7 7 6 5 5 5 5 5 5 4 4 5 6 7 8 9 10 10 9 8 7 6 5 5 5 5 5 3 4 3 2 2 3 3 4 3 3 2 1 1 1 1 5 5 7 9 10 12 10 11 13 13 9 8 8 13 16
25 23 22 21 17 14 17 17 19 21 21 19 17 18 19 20 20 20 20 18 16 15 14 13 13 12 11 10 9 9 8 7 7 7 6 4 4 3 4 5 6 6 7 8 9 10 11 10 9 8 7 4 2 3 4 4 6 5 4 6 5 4 4 4 3 3 3 4 3 5 6 6 7 9 9 10 10 10 11 13 10 11 13 12 14
25 25 22 19 18 16 16 19 23 24 24 21 20 20 19 20 21 21 22 23 22 20 19 19 17 13 12 11 10 11 10 11 9 6 7 7 6 5 5 4 5 6 7 8 8 9 9 10 10 7 4 3 3 2 2 1 2 5 7 9 8 9 8 7 7 7 7 7 6 6 6 6 6 8 9 9 10 10 9 10 11 10 14 15 16
24 23 20 19 21 22 23 24 26 28 28 25 23 21 19 21 22 23 23 23 24 23 20 20 nan nan 17 15 14 13 12 12 8 8 7 7 7 7 7 5 6 6 7 8 7 8 8 9 10 8 7 7 7 4 2 2 2 1 1 4 9 11 11 10 9 9 9 8 7 8 7 5 4 6 7 7 10 10 11 12 12 14 15 16 17
23 21 17 17 19 23 26 28 30 32 32 29 26 24 25 24 23 23 23 24 24 24 22 20 21 23 22 19 16 15 14 11 9 nan 8 8 7 8 9 8 8 8 8 7 8 9 9 9 10 10 11 10 10 10 8 5 3 2 2 1 2 5 8 11 9 9 10 8 7 6 7 6 4 7 7 10 8 10 11 13 14 14 14 17 20
20 18 19 19 18 19 23 28 31 32 32 29 27 26 27 28 27 25 23 22 22 21 20 22 23 24 24 24 20 18 16 12 11 10 nan 8 7 7 10 10 9 9 9 9 8 9 10 10 10 11 11 6 8 10 11 10 7 4 3 3 3 3 4 4 5 7 9 9 7 6 8 7 7 8 12 12 15 12 12 13 15 16 17 17 18
22 19 18 19 17 18 20 24 28 29 29 29 30 29 29 29 29 27 26 26 24 23 23 24 25 26 26 25 24 23 21 16 12 11 10 10 8 10 9 9 10 9 9 9 10 10 10 11 10 11 12 12 13 13 13 nan nan 12 12 11 10 6 3 6 6 6 6 7 8 7 7 13 9 10 11 16 15 12 12 12 16 17 19 19 21
25 21 20 19 19 18 18 20 24 27 29 29 29 30 32 32 31 30 29 28 26 25 25 26 27 27 27 26 25 24 24 18 14 12 12 12 11 13 12 10 10 9 9 10 10 10 11 12 12 11 12 13 nan 12 nan nan nan nan nan nan 9 8 8 8 9 9 9 9 8 8 7 11 11 10 12 17 16 14 15 15 18 21 21 23 24
28 25 24 22 21 20 18 17 20 23 26 28 29 30 31 30 30 30 30 29 29 28 28 28 27 27 27 26 25 23 24 23 23 19 16 14 14 19 17 14 12 11 10 10 10 11 11 12 nan nan nan nan 13 11 12 13 13 11 nan nan nan 9 8 8 7 9 11 11 11 10 9 9 10 12 13 16 17 18 19 23 25 25 25 23 21
31 29 27 26 25 23 23 21 20 21 22 25 28 29 30 30 30 30 30 30 29 29 29 28 29 27 26 26 24 23 24 23 22 27 28 23 23 21 20 18 15 12 11 12 13 14 14 13 12 12 13 14 13 14 14 14 15 13 12 11 11 11 10 12 11 9 7 7 7 6 5 5 6 9 11 12 16 21 25 24 22 25 25 22 21
32 31 30 29 28 27 26 25 25 25 24 23 23 25 27 29 30 31 31 31 31 31 31 31 31 30 29 27 26 24 25 26 27 28 29 32 29 27 24 21 17 15 13 14 15 15 15 11 11 13 11 12 11 13 15 19 19 16 15 15 13 12 12 16 20 19 15 12 10 9 9 10 10 10 11 12 13 24 28 23 22 29 26 26 22
nan nan nan nan nan nan nan 28 27 27 27 25 23 23 24 26 28 30 30 30 29 31 32 32 33 34 32 31 28 25 26 29 32 28 26 26 29 30 29 27 23 21 20 18 18 17 15 13 9 10 12 11 10 12 14 20 21 20 20 19 16 14 15 21 24 23 24 24 22 21 19 16 16 18 17 14 17 25 29 25 26 29 25 23 23
nan nan nan nan nan nan nan nan nan nan nan nan nan 25 24 24 25 26 27 27 27 28 30 31 33 35 35 34 32 31 30 30 31 29 28 28 27 29 30 29 24 24 25 23 22 20 18 17 15 12 9 9 12 14 15 19 21 20 23 22 17 15 22 27 26 25 24 23 21 22 20 22 23 24 24 24 25 29 30 29 27 28 26 22 23
nan nan nan nan nan nan nan nan nan nan nan nan nan nan nan 26 25 26 26 26 26 28 30 31 33 35 36 36 34 34 36 35 33 31 30 30 27 27 29 27 26 26 26 24 23 22 21 21 21 17 13 12 13 13 14 16 20 20 21 19 18 18 27 31 29 26 26 25 24 23 23 25 25 25 27 28 29 32 33 31 28 28 27 24 23
nan nan nan nan nan nan nan nan nan nan nan nan nan nan nan nan nan 27 28 27 28 30 31 32 33 36 38 37 36 36 37 37 36 37 37 35 34 29 30 29 29 28 26 25 25 24 24 24 25 22 19 17 16 15 15 16 18 23 18 15 13 17 23 27 29 29 28 28 27 26 26 27 27 28 29 30 32 34 34 33 32 30 29 27 26
nan nan nan nan nan nan nan nan nan nan nan nan nan nan nan nan 32 32 32 31 32 32 33 33 33 34 35 35 35 35 35 34 34 35 35 35 34 32 28 29 29 30 28 26 26 27 28 28 26 27 29 27 24 22 20 18 21 22 15 15 16 19 26 27 27 28 27 27 27 26 25 26 26 26 28 29 31 34 34 34 34 32 30 28 26
nan nan nan nan nan nan nan nan nan nan nan nan nan nan nan nan nan 37 36 36 36 36 34 34 34 34 33 32 33 34 35 34 33 35 35 35 35 33 30 27 29 31 30 27 27 28 28 30 33 34 31 33 34 35 31 29 28 24 25 23 24 28 29 28 28 27 27 27 25 24 23 24 24 24 25 27 29 32 34 34 33 33 32 30 28
nan nan nan nan nan nan nan nan nan nan nan nan nan nan nan nan nan nan nan 40 nan nan nan 36 36 34 33 31 29 30 33 33 32 33 35 37 38 40 40 37 34 34 31 27 27 26 26 27 28 27 26 25 24 25 29 30 29 28 27 29 32 34 33 32 31 31 29 27 25 24 24 25 25 25 26 28 30 33 36 35 34 33 33 31 29
nan nan nan nan nan nan nan nan nan nan nan nan nan nan nan nan nan nan nan nan nan nan nan nan nan nan 35 33 31 29 29 30 30 29 30 32 34 39 41 39 38 35 31 29 26 26 25 24 23 24 25 26 28 30 30 30 32 33 34 38 40 39 39 37 35 34 30 28 28 26 25 28 29 29 29 31 33 33 35 34 33 33 34 32 28
nan nan nan nan nan nan nan nan nan nan nan nan nan nan nan nan nan nan nan nan nan nan nan nan nan nan nan nan nan 34 32 32 31 30 30 31 34 35 36 35 35 36 35 34 32 30 29 29 29 26 26 24 25 26 28 29 31 34 37 39 40 41 40 40 38 36 32 31 30 29 29 29 30 32 33 35 34 33 35 32 31 30 33 31 27
nan nan nan nan nan nan nan nan nan nan nan nan nan nan nan nan nan nan nan nan nan nan nan nan nan nan nan nan nan nan nan 38 38 36 34 33 34 34 34 33 33 34 33 34 34 31 30 29 28 29 29 30 31 33 33 34 33 34 35 37 38 39 38 37 37 36 34 34 33 32 32 33 31 31 34 36 35 34 35 35 32 31 32 32 27
nan nan nan nan nan nan nan nan nan nan nan nan nan nan nan nan nan nan nan nan nan nan nan nan nan nan nan nan nan nan nan nan nan nan nan 37 36 36 35 35 35 33 32 35 32 28 29 29 30 29 29 29 29 30 31 33 34 35 35 37 39 40 41 42 39 36 35 36 34 33 32 33 31 31 34 36 36 37 39 37 35 34 33 33 26
nan nan nan nan nan nan nan nan nan nan nan nan nan nan nan nan nan nan nan nan nan nan nan nan nan nan nan nan nan nan nan nan nan nan nan nan nan nan nan 36 35 35 34 33 31 31 30 31 30 30 30 29 28 28 29 31 31 33 34 36 37 40 40 41 40 38 38 37 35 34 34 35 33 33 35 35 36 39 38 38 35 37 34 30 26
nan nan nan nan nan nan nan nan nan nan nan nan nan nan nan nan nan nan nan nan nan nan nan nan nan nan nan nan nan nan nan nan nan nan nan nan nan nan nan nan nan 44 44 44 40 38 36 35 34 34 34 32 31 30 32 32 32 32 33 35 36 37 38 39 39 40 40 38 36 35 35 36 35 35 35 35 36 36 36 37 38 37 33 30 27
nan nan nan nan nan nan nan nan nan nan nan nan nan nan nan nan nan nan nan nan nan nan nan nan nan nan nan nan nan nan nan nan nan nan nan nan nan nan nan nan nan nan nan 50 47 43 42 41 40 40 39 37 35 35 35 35 35 34 34 34 35 37 37 37 38 41 40 40 38 38 37 37 37 36 36 36 35 34 35 36 38 36 32 30 27
nan nan nan nan nan nan nan nan nan nan nan nan nan nan nan nan nan nan nan nan nan nan nan nan nan nan nan nan nan nan nan nan nan nan nan nan nan nan nan nan nan nan nan nan nan nan nan nan 45 44 43 41 38 37 37 37 37 36 35 33 33 35 36 36 38 39 39 38 39 39 38 37 37 36 35 35 35 34 35 35 36 36 33 31 28
nan nan nan nan nan nan nan nan nan nan nan nan nan nan nan nan nan nan nan nan nan nan nan nan nan nan nan nan nan nan nan nan nan nan nan nan nan nan nan nan nan nan nan nan nan nan nan nan nan nan 46 43 41 39 38 38 38 37 36 34 33 34 34 36 37 36 37 37 38 38 38 37 37 35 33 34 35 35 35 36 38 37 35 33 30
nan nan nan nan nan nan nan nan nan nan nan nan nan nan nan nan nan nan nan nan nan nan nan nan nan nan nan nan nan nan nan nan nan nan nan nan nan nan nan nan nan nan nan nan nan nan nan nan nan nan nan nan nan 43 41 41 40 40 38 37 36 35 35 35 35 35 35 35 36 37 38 38 37 36 35 34 36 36 36 37 38 37 35 33 32
nan nan nan nan nan nan nan nan nan nan nan nan nan nan nan nan nan nan nan nan nan nan nan nan nan nan nan nan nan nan nan nan nan nan nan nan nan nan nan nan nan nan nan nan nan nan nan nan nan nan nan nan 50 47 46 45 45 44 42 40 38 38 37 35 35 35 35 35 35 36 38 38 38 37 37 36 34 34 37 38 38 37 34 33 33
nan nan nan nan nan nan nan nan nan nan nan nan nan nan nan nan nan nan nan nan nan nan nan nan nan nan nan nan nan nan nan nan nan nan nan nan nan nan nan nan nan nan nan nan nan nan nan nan nan nan nan nan nan nan nan nan nan 46 45 44 42 40 38 37 35 35 35 35 36 37 38 38 37 36 37 35 35 36 38 40 39 35 33 31 33
nan nan nan nan nan nan nan nan nan nan nan nan nan nan nan nan nan nan nan nan nan nan nan nan nan nan nan nan nan nan nan nan nan nan nan nan nan nan nan nan nan nan nan nan nan nan nan nan nan nan nan nan nan nan nan nan nan nan nan 46 43 41 40 39 34 32 32 33 34 39 46 42 35 35 39 38 34 35 38 40 40 37 33 30 34
nan nan nan nan nan nan nan nan nan nan nan nan nan nan nan nan nan nan nan nan nan nan nan nan nan nan nan nan nan nan nan nan nan nan nan nan nan nan nan nan nan nan nan nan nan nan nan nan nan nan nan nan nan nan nan nan nan nan 49 49 47 45 43 42 42 42 39 36 35 43 48 41 35 36 37 35 32 33 37 39 38 38 36 34 35
nan nan nan nan nan nan nan nan nan nan nan nan nan nan nan nan nan nan nan nan nan nan nan nan nan nan nan nan nan nan nan nan nan nan nan nan nan nan nan nan nan nan nan nan nan nan nan nan nan nan nan nan nan nan nan nan nan nan nan nan 51 50 47 45 44 43 42 42 42 43 44 41 34 35 37 36 34 35 38 38 38 38 38 36 35
nan nan nan nan nan nan nan nan nan nan nan nan nan nan nan nan nan nan nan nan nan nan nan nan nan nan nan nan nan nan nan nan nan nan nan nan nan nan nan nan nan nan nan nan nan nan nan nan nan nan nan nan nan nan nan nan nan nan nan nan nan nan nan 51 50 48 46 45 44 43 43 42 40 38 37 38 37 37 38 40 40 39 39 38 35
nan nan nan nan nan nan nan nan nan nan nan nan nan nan nan nan nan nan nan nan nan nan nan nan nan nan nan nan nan nan nan nan nan nan nan nan nan nan nan nan nan nan nan nan nan nan nan nan nan nan nan nan nan nan nan nan nan nan nan nan nan nan nan nan nan nan nan nan nan 46 43 41 41 41 41 43 42 41 39 40 40 40 39 38 37
nan nan nan nan nan nan nan nan nan nan nan nan nan nan nan nan nan nan nan nan nan nan nan nan nan nan nan nan nan nan nan nan nan nan nan nan nan nan nan nan nan nan nan nan nan nan nan nan nan nan nan nan nan nan nan nan nan nan nan nan nan nan nan nan nan nan nan nan nan nan nan nan 42 42 42 43 44 44 43 42 43 43 42 41 40
nan nan nan nan nan nan nan nan nan nan nan nan nan nan nan nan nan nan nan nan nan nan nan nan nan nan nan nan nan nan nan nan nan nan nan nan nan nan nan nan nan nan nan nan nan nan nan nan nan nan nan nan nan nan nan nan nan nan nan nan nan nan nan nan nan nan nan nan nan nan nan nan nan nan 42 42 44 45 44 42 42 43 44 45 44
nan nan nan nan nan nan nan nan nan nan nan nan nan nan nan nan nan nan nan nan nan nan nan nan nan nan nan nan nan nan nan nan nan nan nan nan nan nan nan nan nan nan nan nan nan nan nan nan nan nan nan nan nan nan nan nan nan nan nan nan nan nan nan nan nan nan nan nan nan nan nan nan nan nan nan nan 43 45 44 43 43 44 44 46 46
nan nan nan nan nan nan nan nan nan nan nan nan nan nan nan nan nan nan nan nan nan nan nan nan nan nan nan nan nan nan nan nan nan nan nan nan nan nan nan nan nan nan nan nan nan nan nan nan nan nan nan nan nan nan nan nan nan nan nan nan nan nan nan nan nan nan nan nan nan nan nan nan nan nan nan nan nan nan nan nan nan 44 45 45 45
nan nan nan nan nan nan nan nan nan nan nan nan nan nan nan nan nan nan nan nan nan nan nan nan nan nan nan nan nan nan nan nan nan nan nan nan nan nan nan nan nan nan nan nan nan nan nan nan nan nan nan nan nan nan nan nan nan nan nan nan nan nan nan nan nan nan nan nan nan nan nan nan nan nan nan nan nan nan nan nan nan nan nan nan 45
nan nan nan nan nan nan nan nan nan nan nan nan nan nan nan nan nan nan nan nan nan nan nan nan nan nan nan nan nan nan nan nan nan nan nan nan nan nan nan nan nan nan nan nan nan nan nan nan nan nan nan nan nan nan nan nan nan nan nan nan nan nan nan nan nan nan nan nan nan nan nan nan nan nan nan nan nan nan nan nan nan nan nan nan nan
nan nan nan nan nan nan nan nan nan nan nan nan nan nan nan nan nan nan nan nan nan nan nan nan nan nan nan nan nan nan nan nan nan nan nan nan nan nan nan nan nan nan nan nan nan nan nan nan nan nan nan nan nan nan nan nan nan nan nan nan nan nan nan nan nan nan nan nan nan nan nan nan nan nan nan nan nan nan nan nan nan nan nan nan nan
nan nan nan nan nan nan nan nan nan nan nan nan nan nan nan nan nan nan nan nan nan nan nan nan nan nan nan nan nan nan nan nan nan nan nan nan nan nan nan nan nan nan nan nan nan nan nan nan nan nan nan nan nan nan nan nan nan nan nan nan nan nan nan nan nan nan nan nan nan nan nan nan nan nan nan nan nan nan nan nan nan nan nan nan nan
nan nan nan nan nan nan nan nan nan nan nan nan nan nan nan nan nan nan nan nan nan nan nan nan nan nan nan nan nan nan nan nan nan nan nan nan nan nan nan nan nan nan nan nan nan nan nan nan nan nan nan nan nan nan nan nan nan nan nan nan nan nan nan nan nan nan nan nan nan nan nan nan nan nan nan nan nan nan nan nan nan nan nan nan nan
Wind_Direction
227 225 226 224 228 224 220 218 218 220 217 216 223 225 225 225 225 226 225 219 210 208 211 209 218 223 222 222 242 251 250 242 236 240 235 221 210 219 207 208 212 215 246 158 187 183 184 190 189 191 213 223 212 226 218 207 202 201 206 218 237 236 239 236 230 198 205 226 241 240 230 241 249 270 268 274 275 292 300 313 316 322 327 333 336
224 219 222 228 231 226 222 217 215 216 216 216 216 221 225 231 234 236 246 243 235 221 208 210 217 249 251 252 247 257 259 255 250 246 243 226 214 223 223 215 205 197 219 180 139 150 177 184 182 186 202 221 222 218 230 213 210 206 202 215 206 213 238 244 242 241 202 223 234 233 241 258 258 278 276 268 278 291 303 320 319 318 326 327 329
225 234 235 233 234 234 231 226 224 219 213 210 211 215 220 227 234 245 251 254 251 243 220 214 224 236 249 258 259 260 268 266 253 255 247 237 224 218 224 225 218 205 196 140 122 142 159 173 168 186 199 206 213 223 225 221 229 228 206 223 223 213 232 247 251 247 233 218 251 252 263 261 274 277 277 288 296 304 307 311 321 322 326 326 324
216 212 218 225 229 232 230 229 234 234 228 215 209 208 217 224 231 241 250 255 265 251 241 235 234 240 245 248 258 260 267 262 260 259 261 253 233 222 222 224 219 214 208 181 150 146 135 156 159 179 193 197 200 209 216 225 228 240 231 224 233 223 226 255 261 263 259 244 234 253 266 258 264 279 286 281 285 283 302 312 315 325 328 327 325
225 213 203 209 220 223 226 226 224 229 237 232 220 213 211 222 231 238 246 250 259 259 244 239 245 249 254 254 250 258 269 270 267 261 254 252 249 236 233 231 225 219 212 204 187 173 157 150 147 175 189 190 192 198 202 201 199 239 257 244 243 238 233 257 268 273 278 281 263 265 271 274 287 290 296 291 275 284 290 304 318 322 323 322 321
244 234 214 204 207 214 205 207 216 223 234 234 232 223 217 218 231 237 245 254 255 260 262 250 251 257 256 257 260 263 266 274 282 282 276 263 256 246 241 241 238 232 225 218 208 204 192 174 170 177 187 191 178 186 193 178 181 175 176 197 253 249 232 216 254 277 289 310 304 257 270 300 283 298 305 307 296 287 288 303 305 308 312 306 314
235 231 225 222 226 218 204 202 220 226 228 232 233 233 227 222 225 231 241 251 258 262 265 267 260 265 268 265 270 275 281 282 284 287 283 278 279 268 253 248 244 240 234 230 225 218 205 195 193 192 186 189 186 185 183 177 172 154 126 129 151 215 178 139 209 286 321 356 307 333 318 288 305 292 289 292 303 310 313 303 297 304 306 317 319
243 232 225 229 230 213 199 206 223 230 233 232 230 232 230 225 225 227 235 234 247 260 265 271 271 271 275 276 277 276 280 279 281 285 287 292 285 275 271 260 253 245 239 238 237 234 226 217 210 210 207 204 208 204 221 199 214 191 165 192 179 175 148 145 172 180 184 232 288 205 295 291 278 297 290 285 290 296 311 320 321 310 308 310 318
243 240 233 233 230 214 209 221 236 236 235 231 230 233 230 227 225 222 227 236 237 235 247 261 266 266 267 272 271 267 268 267 261 266 273 278 277 282 274 265 260 250 241 239 244 246 239 234 229 225 229 226 241 230 235 250 244 235 212 238 229 228 213 208 210 219 225 248 225 263 267 269 289 289 290 301 318 333 312 302 309 312 312 307 312
247 244 245 242 240 238 242 232 232 233 231 226 229 235 234 233 229 227 227 224 226 237 239 241 244 250 254 254 254 255 254 252 258 298 291 272 273 271 261 258 254 250 245 238 238 248 251 248 241 248 248 238 230 213 190 186 259 263 250 256 258 258 256 251 249 259 263 260 270 273 271 283 294 306 309 310 311 301 292 299 300 300 292 303 307
239 244 244 244 243 241 240 234 228 225 222 223 230 242 240 236 229 228 228 228 224 220 234 246 nan nan 245 240 241 240 241 245 276 289 305 318 283 271 277 273 265 259 252 248 241 242 244 249 247 237 232 232 234 234 229 204 205 222 297 283 280 278 270 272 270 272 273 277 276 274 282 284 296 303 307 307 299 306 305 298 301 294 299 300 299
240 242 242 242 246 240 235 235 232 227 225 223 226 229 235 237 236 231 229 231 230 229 221 230 246 250 251 248 245 242 241 242 264 nan 297 311 299 275 271 273 275 275 269 266 258 252 248 249 250 250 248 248 246 241 240 237 237 233 235 256 301 311 307 293 286 275 277 282 280 289 282 291 297 286 288 287 302 293 299 297 298 302 304 303 299
244 243 244 243 240 240 234 232 230 227 225 226 229 233 233 235 235 233 230 229 233 234 233 229 227 236 249 253 249 248 245 248 254 265 nan 290 302 287 260 266 268 271 274 274 272 268 262 257 253 256 254 268 259 251 248 239 238 248 247 232 238 279 295 317 316 302 288 289 290 288 297 290 291 294 293 291 288 291 287 291 296 301 303 302 305
248 243 244 246 238 231 232 231 228 227 228 229 230 233 235 235 237 239 234 228 227 227 229 232 231 230 232 238 243 244 244 247 265 271 273 279 282 275 252 260 266 271 277 282 279 278 276 270 265 258 260 259 258 259 256 nan nan 242 240 247 252 253 298 349 355 360 322 294 292 298 297 289 302 298 296 287 287 295 294 298 298 297 299 306 305
254 252 249 249 247 243 235 234 236 233 233 235 236 236 237 237 236 237 240 238 234 230 228 230 233 233 234 236 238 239 242 245 252 265 276 283 282 274 252 246 248 256 268 278 284 287 285 282 278 273 266 267 nan 271 nan nan nan nan nan nan 243 249 258 266 276 282 285 286 289 294 293 292 297 298 289 288 295 297 296 293 292 293 291 287 286
252 250 248 248 249 246 252 249 245 246 243 238 237 239 240 242 240 238 238 239 237 237 234 234 233 232 234 235 235 237 240 244 250 255 257 255 257 253 251 247 243 241 246 255 266 273 279 282 nan nan nan nan 283 296 288 272 264 259 nan nan nan 244 250 266 283 281 282 283 284 286 286 290 294 288 286 287 288 286 282 280 281 284 282 283 292
251 250 248 246 244 245 246 248 248 249 251 247 243 242 243 243 242 242 241 239 240 241 241 241 240 239 237 236 235 234 236 246 253 257 259 258 255 250 250 250 247 245 243 246 248 251 253 259 263 266 271 276 286 296 296 288 271 267 261 254 249 245 244 249 263 274 273 276 283 286 286 276 265 271 274 281 287 282 278 278 286 288 286 286 288
252 250 248 247 246 245 246 247 246 246 247 248 247 246 247 250 248 247 246 244 242 241 242 241 240 241 242 241 241 235 235 242 252 250 257 267 264 255 252 251 249 247 244 245 248 250 256 270 271 263 262 261 274 287 291 282 274 271 265 259 252 248 246 249 249 251 261 261 253 247 244 242 249 257 271 284 296 286 288 293 292 285 289 292 291
nan nan nan nan nan nan nan 246 246 247 247 247 247 246 247 248 248 249 250 249 248 244 242 240 238 238 241 244 243 240 237 237 253 256 258 263 263 256 255 253 249 247 245 242 244 247 247 254 272 277 272 271 275 274 280 280 275 274 271 266 261 258 257 253 252 249 248 250 251 255 253 260 264 269 274 290 292 288 290 293 284 286 289 292 295
nan nan nan nan nan nan nan nan nan nan nan nan nan 246 249 253 253 251 251 251 249 245 243 242 241 241 243 245 245 242 237 237 248 262 258 253 257 256 255 257 253 250 248 246 244 243 244 243 245 249 257 261 268 275 278 285 279 272 271 271 268 260 260 260 262 262 259 260 260 262 264 264 265 269 271 274 279 284 289 288 288 289 292 296 298
nan nan nan nan nan nan nan nan nan nan nan nan nan nan nan 251 253 256 253 249 249 247 246 245 245 245 244 243 245 244 241 236 237 239 247 255 257 259 255 256 252 250 251 253 254 251 249 250 248 251 258 259 262 267 273 278 281 273 274 276 275 264 257 262 263 267 267 268 268 269 270 271 272 274 276 278 281 283 286 291 293 296 298 299 299
nan nan nan nan nan nan nan nan nan nan nan nan nan nan nan nan nan 258 260 256 251 247 246 246 245 244 242 241 243 245 242 234 236 234 237 241 247 253 246 245 246 244 245 248 249 248 247 246 247 248 252 257 260 264 266 267 276 271 272 282 270 257 258 260 261 263 265 265 264 265 268 271 274 277 279 281 283 284 288 293 297 299 301 303 301
nan nan nan nan nan nan nan nan nan nan nan nan nan nan nan nan 245 250 257 258 256 251 247 245 246 246 245 244 244 246 246 243 235 236 233 233 238 251 258 251 243 244 243 240 242 241 241 241 241 237 236 239 244 248 253 257 263 271 279 267 263 254 252 257 259 259 259 260 262 263 264 265 266 269 274 276 278 281 285 290 293 297 299 299 299
nan nan nan nan nan nan nan nan nan nan nan nan nan nan nan nan nan 245 248 251 253 251 249 247 247 246 245 244 244 246 248 246 240 234 235 231 229 233 241 247 249 249 246 243 243 244 242 242 243 238 238 241 244 247 250 257 265 256 251 254 254 255 260 259 260 262 261 260 261 261 262 265 266 266 268 272 274 279 283 286 290 294 296 296 297
nan nan nan nan nan nan nan nan nan nan nan nan nan nan nan nan nan nan nan 246 nan nan nan 250 249 247 245 244 243 244 245 246 244 239 234 234 235 235 235 237 238 245 246 244 246 247 243 235 230 228 233 238 242 248 255 260 265 268 266 263 261 263 264 265 264 264 265 267 268 268 268 270 271 268 266 269 272 275 277 282 287 291 294 295 297
nan nan nan nan nan nan nan nan nan nan nan nan nan nan nan nan nan nan nan nan nan nan nan nan nan nan 250 250 250 249 249 250 248 248 248 245 244 242 239 239 240 248 259 252 241 235 236 237 235 235 236 241 250 257 259 261 267 272 271 269 266 267 267 267 266 266 267 267 268 268 267 267 269 272 273 271 272 276 280 283 287 289 291 292 293
nan nan nan nan nan nan nan nan nan nan nan nan nan nan nan nan nan nan nan nan nan nan nan nan nan nan nan nan nan 252 250 251 251 250 249 249 248 247 245 242 239 242 248 249 248 247 245 247 249 250 252 247 248 251 254 256 260 266 267 268 268 269 270 270 270 270 269 268 266 266 265 266 267 270 273 275 276 277 280 283 284 285 287 289 292
nan nan nan nan nan nan nan nan nan nan nan nan nan nan nan nan nan nan nan nan nan nan nan nan nan nan nan nan nan nan nan 249 251 250 247 246 247 247 246 246 246 245 243 243 242 243 244 246 247 253 255 254 254 255 258 260 263 263 264 265 267 268 269 272 270 268 268 269 268 267 267 267 269 272 273 275 277 277 278 279 280 279 279 279 280
nan nan nan nan nan nan nan nan nan nan nan nan nan nan nan nan nan nan nan nan nan nan nan nan nan nan nan nan nan nan nan nan nan nan nan 245 247 249 248 249 249 249 247 241 240 246 249 253 253 254 256 255 254 254 255 257 260 264 266 267 268 267 267 268 269 269 268 267 268 270 269 269 270 272 274 274 275 276 276 277 279 279 278 280 284
nan nan nan nan nan nan nan nan nan nan nan nan nan nan nan nan nan nan nan nan nan nan nan nan nan nan nan nan nan nan nan nan nan nan nan nan nan nan nan 252 252 253 248 241 252 253 254 255 257 259 258 258 257 258 258 259 260 262 265 267 268 268 268 268 269 269 268 268 268 268 269 269 268 269 270 271 270 274 279 284 282 281 281 283 283
nan nan nan nan nan nan nan nan nan nan nan nan nan nan nan nan nan nan nan nan nan nan nan nan nan nan nan nan nan nan nan nan nan nan nan nan nan nan nan nan nan 248 251 253 257 258 254 256 258 260 263 264 266 265 265 264 265 267 268 270 270 270 269 268 267 268 269 269 268 267 267 268 268 267 267 268 270 273 275 278 277 277 280 281 283
nan nan nan nan nan nan nan nan nan nan nan nan nan nan nan nan nan nan nan nan nan nan nan nan nan nan nan nan nan nan nan nan nan nan nan nan nan nan nan nan nan nan nan 261 259 257 255 255 257 260 262 264 267 268 269 268 268 269 270 271 271 271 271 269 268 267 268 270 269 267 267 267 267 267 267 267 269 271 272 271 273 275 276 276 278
nan nan nan nan nan nan nan nan nan nan nan nan nan nan nan nan nan nan nan nan nan nan nan nan nan nan nan nan nan nan nan nan nan nan nan nan nan nan nan nan nan nan nan nan nan nan nan nan 258 260 262 264 264 265 267 268 269 269 270 270 270 271 271 271 269 267 267 268 267 266 267 267 268 268 268 269 270 271 271 272 272 272 271 271 271
nan nan nan nan nan nan nan nan nan nan nan nan nan nan nan nan nan nan nan nan nan nan nan nan nan nan nan nan nan nan nan nan nan nan nan nan nan nan nan nan nan nan nan nan nan nan nan nan nan nan 261 263 263 263 263 263 264 265 266 268 269 269 271 272 270 268 265 264 265 266 266 266 267 267 267 268 269 269 269 270 269 269 270 271 270
nan nan nan nan nan nan nan nan nan nan nan nan nan nan nan nan nan nan nan nan nan nan nan nan nan nan nan nan nan nan nan nan nan nan nan nan nan nan nan nan nan nan nan nan nan nan nan nan nan nan nan nan nan 256 256 257 258 261 263 263 265 268 270 271 271 268 264 260 261 263 265 266 267 267 266 266 267 269 269 269 268 270 270 271 273
nan nan nan nan nan nan nan nan nan nan nan nan nan nan nan nan nan nan nan nan nan nan nan nan nan nan nan nan nan nan nan nan nan nan nan nan nan nan nan nan nan nan nan nan nan nan nan nan nan nan nan nan 253 252 251 249 249 249 251 255 259 265 268 269 270 270 267 261 258 258 261 265 266 266 266 266 267 268 268 268 268 269 272 273 274
nan nan nan nan nan nan nan nan nan nan nan nan nan nan nan nan nan nan nan nan nan nan nan nan nan nan nan nan nan nan nan nan nan nan nan nan nan nan nan nan nan nan nan nan nan nan nan nan nan nan nan nan nan nan nan nan nan 249 249 248 248 251 257 262 266 268 268 264 260 257 260 261 265 269 271 270 269 270 270 268 267 269 272 276 276
nan nan nan nan nan nan nan nan nan nan nan nan nan nan nan nan nan nan nan nan nan nan nan nan nan nan nan nan nan nan nan nan nan nan nan nan nan nan nan nan nan nan nan nan nan nan nan nan nan nan nan nan nan nan nan nan nan nan nan 247 248 250 244 245 253 261 265 266 263 262 260 260 263 266 268 270 269 268 269 268 265 264 267 270 273
nan nan nan nan nan nan nan nan nan nan nan nan nan nan nan nan nan nan nan nan nan nan nan nan nan nan nan nan nan nan nan nan nan nan nan nan nan nan nan nan nan nan nan nan nan nan nan nan nan nan nan nan nan nan nan nan nan nan 247 246 246 247 247 248 247 248 249 254 259 264 268 265 261 264 266 269 269 269 268 267 264 262 262 265 268
nan nan nan nan nan nan nan nan nan nan nan nan nan nan nan nan nan nan nan nan nan nan nan nan nan nan nan nan nan nan nan nan nan nan nan nan nan nan nan nan nan nan nan nan nan nan nan nan nan nan nan nan nan nan nan nan nan nan nan nan 246 246 247 248 248 247 248 247 246 251 263 270 267 265 267 271 271 269 269 270 266 263 262 265 266
nan nan nan nan nan nan nan nan nan nan nan nan nan nan nan nan nan nan nan nan nan nan nan nan nan nan nan nan nan nan nan nan nan nan nan nan nan nan nan nan nan nan nan nan nan nan nan nan nan nan nan nan nan nan nan nan nan nan nan nan nan nan nan 247 249 249 248 248 248 248 251 254 256 258 263 268 271 269 268 266 263 261 260 262 264
nan nan nan nan nan nan nan nan nan nan nan nan nan nan nan nan nan nan nan nan nan nan nan nan nan nan nan nan nan nan nan nan nan nan nan nan nan nan nan nan nan nan nan nan nan nan nan nan nan nan nan nan nan nan nan nan nan nan nan nan nan nan nan nan nan nan nan nan nan 251 250 250 250 251 250 252 258 265 267 265 261 257 256 257 261
nan nan nan nan nan nan nan nan nan nan nan nan nan nan nan nan nan nan nan nan nan nan nan nan nan nan nan nan nan nan nan nan nan nan nan nan nan nan nan nan nan nan nan nan nan nan nan nan nan nan nan nan nan nan nan nan nan nan nan nan nan nan nan nan nan nan nan nan nan nan nan nan 250 251 251 252 254 259 263 262 259 257 255 256 259
nan nan nan nan nan nan nan nan nan nan nan nan nan nan nan nan nan nan nan nan nan nan nan nan nan nan nan nan nan nan nan nan nan nan nan nan nan nan nan nan nan nan nan nan nan nan nan nan nan nan nan nan nan nan nan nan nan nan nan nan nan nan nan nan nan nan nan nan nan nan nan nan nan nan 250 251 252 255 257 258 257 256 255 256 260
nan nan nan nan nan nan nan nan nan nan nan nan nan nan nan nan nan nan nan nan nan nan nan nan nan nan nan nan nan nan nan nan nan nan nan nan nan nan nan nan nan nan nan nan nan nan nan nan nan nan nan nan nan nan nan nan nan nan nan nan nan nan nan nan nan nan nan nan nan nan nan nan nan nan nan nan 250 251 253 255 255 253 253 256 262
nan nan nan nan nan nan nan nan nan nan nan nan nan nan nan nan nan nan nan nan nan nan nan nan nan nan nan nan nan nan nan nan nan nan nan nan nan nan nan nan nan nan nan nan nan nan nan nan nan nan nan nan nan nan nan nan nan nan nan nan nan nan nan nan nan nan nan nan nan nan nan nan nan nan nan nan nan nan nan nan nan 253 255 257 262
nan nan nan nan nan nan nan nan nan nan nan nan nan nan nan nan nan nan nan nan nan nan nan nan nan nan nan nan nan nan nan nan nan nan nan nan nan nan nan nan nan nan nan nan nan nan nan nan nan nan nan nan nan nan nan nan nan nan nan nan nan nan nan nan nan nan nan nan nan nan nan nan nan nan nan nan nan nan nan nan nan nan nan nan 257
nan nan nan nan nan nan nan nan nan nan nan nan nan nan nan nan nan nan nan nan nan nan nan nan nan nan nan nan nan nan nan nan nan nan nan nan nan nan nan nan nan nan nan nan nan nan nan nan nan nan nan nan nan nan nan nan nan nan nan nan nan nan nan nan nan nan nan nan nan nan nan nan nan nan nan nan nan nan nan nan nan nan nan nan nan
nan nan nan nan nan nan nan nan nan nan nan nan nan nan nan nan nan nan nan nan nan nan nan nan nan nan nan nan nan nan nan nan nan nan nan nan nan nan nan nan nan nan nan nan nan nan nan nan nan nan nan nan nan nan nan nan nan nan nan nan nan nan nan nan nan nan nan nan nan nan nan nan nan nan nan nan nan nan nan nan nan nan nan nan nan
nan nan nan nan nan nan nan nan nan nan nan nan nan nan nan nan nan nan nan nan nan nan nan nan nan nan nan nan nan nan nan nan nan nan nan nan nan nan nan nan nan nan nan nan nan nan nan nan nan nan nan nan nan nan nan nan nan nan nan nan nan nan nan nan nan nan nan nan nan nan nan nan nan nan nan nan nan nan nan nan nan nan nan nan nan
nan nan nan nan nan nan nan nan nan nan nan nan nan nan nan nan nan nan nan nan nan nan nan nan nan nan nan nan nan nan nan nan nan nan nan nan nan nan nan nan nan nan nan nan nan nan nan nan nan nan nan nan nan nan nan nan nan nan nan nan nan nan nan nan nan nan nan nan nan nan nan nan nan nan nan nan nan nan nan nan nan nan nan nan nan